Regional Weather Roundup
Issued by NWS

Home | Current Version | Previous Version | Text Only | Print | Product List | Glossary On
Versions: 1 2 3 4 5 6 7 8 9 10 11 12 13 14 15 16 17 18 19 20 21 22 23 24 25 26 27 28 29 30 31 32 33 34 35 36 37 38 39 40 41 42 43 44 45 46 47 48 49 50
000
ASUS43 KDMX 232306
RWRIA

WEATHER ROUNDUP FOR IOWA
NATIONAL WEATHER SERVICE DES MOINES IA
600 PM CDT WED AUG 23 2017

NOTE: "FAIR" INDICATES FEW OR NO CLOUDS BELOW 12,000 FEET WITH NO
SIGNIFICANT WEATHER AND/OR OBSTRUCTIONS TO VISIBILITY.

* - THESE STATIONS ARE NOT NWS STATIONS...THUS NOT UNDER NWS
QUALITY CONTROL.  THEY ALSO DO NOT REPORT WEATHER SUCH
AS PRECIPITATION OR FOG.

IAZ001>003-012>014-020>022-031>034-043>046-240000-
   NORTHWEST IOWA

CITY           SKY/WX    TMP DP  RH WIND       PRES   REMARKS
CARROLL *      SUNNY     75  57  53 SW6       30.05F
CHEROKEE *     MOSUNNY   76  58  52 S7        30.04F
DENISON *      SUNNY     75  59  57 S8        30.07F
LE MARS *      MOSUNNY  N/A N/A N/A S10       30.02F
ORANGE CITY *  SUNNY     77  61  57 S9        30.04S
SHELDON *      PTSUNNY   73  59  60 S5G15     30.02F
SIOUX CITY     PTSUNNY   76  60  57 S10       30.02F
SPENCER        SUNNY     76  55  48 SE7       30.05F
STORM LAKE *   SUNNY     73  57  56 SW7       30.06S
$$

IAZ055>058-069>071-079>083-090>094-240000-
   SOUTHWEST IOWA

CITY           SKY/WX    TMP DP  RH WIND       PRES   REMARKS
ATLANTIC *     SUNNY     75  55  50 SW6       30.06F
AUDUBON *      SUNNY     75  57  53 SW5       30.08F
CLARINDA *     SUNNY     77  59  53 S3        30.09S
COUNCIL BLFS * SUNNY     77  57  50 S9        30.06F
CRESTON *      SUNNY     77  52  41 CALM      30.08F
HARLAN  *      SUNNY     75  57  53 S7        30.09F
LAMONI         SUNNY     80  53  39 N6        30.07S HX  80
RED OAK *      SUNNY     77  59  53 S5        30.07F
SHENANDOAH *   SUNNY     77  57  50 SW5       30.07F
$$

IAZ047>049-059>061-072>074-084-240000-
   CENTRAL IOWA

CITY           SKY/WX    TMP DP  RH WIND       PRES   REMARKS
AMES           SUNNY     78  53  41 CALM      30.05F
ANKENY *       SUNNY     77  52  41 N5        30.07S
BOONE *        SUNNY     75  54  46 N7        30.05F
CHARITON *     SUNNY     77  52  41 CALM      30.06F
DES MOINES     SUNNY     79  50  36 CALM      30.05F
GRINNELL*      SUNNY     73  52  46 NW3       30.08S
KNOXVILLE *    SUNNY     77  50  38 N6        30.05F
MARSHALLTOWN   SUNNY     76  51  41 NW5       30.05F
NEWTON *       SUNNY     75  54  46 N6        30.06F
PELLA *        SUNNY     78  49  35 CALM      30.07F
PERRY *          N/A     77  49  37 CALM      30.06F
$$

IAZ004>006-015-016-023>025-035-036-240000-
   NORTH CENTRAL IOWA

CITY           SKY/WX    TMP DP  RH WIND       PRES   REMARKS
ALGONA *       MOSUNNY   75  52  43 CALM      30.06S
CLARION *      SUNNY     75  55  50 CALM      30.06F
ESTHERVILLE    MOSUNNY   73  54  51 S3        30.05F
FORT DODGE *   SUNNY     76  55  48 NW3       30.06
MASON CITY     SUNNY     75  49  39 NW6       30.07F
FOREST CITY *    N/A     73  50  43 CALM      30.06F
WEBSTER CITY * SUNNY     75  54  46 CALM      30.04F
IOWA FALLS *     N/A     76  51  41 CALM      30.07F
$$

IAZ007>011-017>019-026>030-037>042-050>054-066-240000-
   NORTHEAST IOWA

CITY           SKY/WX    TMP DP  RH WIND       PRES   REMARKS
CEDAR RAPIDS   MOSUNNY   75  49  39 NW8       30.04F
CHARLES CITY * SUNNY     73  48  40 NW7       30.06F
CLINTON *      MOSUNNY   73  55  53 N9        30.04F
DECORAH *      SUNNY     73  52  46 N9G15     30.04S
DUBUQUE        MOSUNNY   72  51  47 NW12      30.05S
MONTICELLO *   SUNNY     75  52  43 NW9       30.04S
OELWEIN *      SUNNY     73  54  49 NW9       30.06S
WATERLOO       SUNNY     75  49  39 NW8       30.04F
$$

IAZ064-065-067-068-078-240000-
   EAST CENTRAL IOWA

CITY           SKY/WX    TMP DP  RH WIND       PRES   REMARKS
DAVENPORT      SUNNY     73  52  47 NW6       30.06S
IOWA CITY      SUNNY     78  50  37 NW9       30.06S
MT. PLEASANT * SUNNY     75  49  38 N7        30.06S
MUSCATINE *    MOSUNNY   77  50  38 NW8       30.05S
QUAD CITIES    MOSUNNY   79  49  34 NW13      30.03F
$$

IAZ062-063-075>077-085>089-095>099-240000-
   SOUTHEAST IOWA

CITY           SKY/WX    TMP DP  RH WIND       PRES   REMARKS
BURLINGTON     SUNNY     76  53  44 NW8       30.05F
FAIRFIELD *    SUNNY     75  50  41 VRB7      30.06S
FORT MADISON * SUNNY     75  54  46 N6        30.06F
KEOKUK *       SUNNY     77  50  38 N6        30.04F
OSKALOOSA *      N/A     76  50  40 N7        30.07S
CENTERVILLE *    N/A     75  50  41 CALM      30.08F
OTTUMWA        SUNNY     78  48  34 N9        30.05F
WASHINGTON *   SUNNY     75  54  46 N7        30.07S
$$

ABBREVIATIONS USED IN REMARKS
   TC - TEMPERATURES IN CELSIUS
  WCI - WIND CHILL INDEX
   HX - HEAT INDEX
  VSB - VISIBILITY
$$




USA.gov is the U.S. government's official web portal to all federal, state and local government web resources and services.